Wind_Speed
57 56 56 55 54 54 53 52 51 50 48 47 46 45 44 44 42 40 39 38 38 37 36 35 33 32 31 31 31 29 29 28 28 27 27 27 26 26 25 25 25 25 25
57 57 57 57 56 55 54 54 52 51 50 49 47 46 46 45 44 43 41 40 39 38 37 36 35 34 33 32 32 32 30 29 29 29 29 28 27 27 27 26 26 26 26
57 57 58 58 57 57 55 54 53 52 52 50 49 48 47 46 45 44 43 42 41 40 39 39 38 37 35 34 34 33 33 31 30 30 30 29 29 29 28 28 28 27 27
57 57 57 57 57 57 56 55 54 54 53 52 51 49 48 47 46 45 44 44 43 42 40 40 39 39 38 36 35 35 35 33 32 31 31 30 30 30 29 29 29 28 27
57 57 57 57 57 57 57 56 56 55 54 53 53 51 50 49 48 47 46 46 44 43 42 41 40 39 39 38 37 37 37 36 34 33 33 32 31 31 31 30 30 29 29
56 57 58 58 58 58 57 57 57 56 55 54 53 53 52 51 51 50 48 47 46 45 44 42 41 41 40 39 39 38 38 38 37 35 34 34 33 32 31 31 31 31 30
56 56 57 58 58 58 58 57 57 57 57 56 55 55 54 53 52 51 50 49 48 47 46 44 43 42 41 40 40 39 39 39 39 38 36 36 35 34 33 33 32 32 32
55 56 57 57 57 58 58 58 57 58 57 57 56 56 55 55 53 52 51 51 49 49 47 47 46 45 44 42 41 41 40 40 39 39 38 38 37 36 35 34 34 33 33
55 55 56 57 57 57 57 57 57 58 58 58 57 57 57 56 55 54 53 52 51 50 49 48 47 46 45 44 43 42 41 41 41 40 40 39 38 38 37 36 35 35 34
52 54 55 56 57 57 57 57 57 56 56 57 57 57 56 56 56 56 55 53 52 51 51 50 48 47 46 45 45 44 42 42 42 41 41 41 40 39 38 37 37 37 36
51 52 53 54 55 56 56 56 57 56 56 56 57 57 56 56 56 56 56 55 53 52 51 51 50 48 47 46 45 44 44 44 43 42 42 42 42 41 40 40 39 39 39
48 50 52 53 53 55 55 56 56 56 56 56 57 57 56 56 56 56 56 56 55 54 53 51 50 49 48 47 47 46 45 45 44 44 43 43 44 44 43 42 41 41 41
46 48 50 52 52 53 54 54 55 55 56 56 56 57 56 56 56 56 56 56 55 54 53 53 51 50 49 48 48 47 47 46 45 45 45 44 45 45 45 44 43 42 42
44 46 49 51 52 53 53 53 53 54 54 55 55 56 56 57 56 56 56 55 55 55 54 53 52 51 50 49 49 48 48 47 47 47 46 46 46 46 46 46 45 44 43
41 44 47 49 50 51 52 52 53 53 53 54 55 56 56 57 57 57 56 56 55 55 54 54 53 52 52 51 50 50 49 48 48 47 47 47 47 47 47 47 46 46 45
36 40 43 47 48 50 50 51 52 53 53 54 55 55 56 56 57 56 56 57 56 55 55 54 54 53 53 52 52 51 50 50 49 48 48 48 48 47 47 47 47 47 47
34 36 39 43 45 48 49 50 51 52 53 53 54 55 56 56 57 57 56 56 56 55 55 55 55 54 54 53 52 52 52 51 50 49 48 48 47 48 48 48 48 48 49
32 34 37 39 42 46 48 49 50 51 52 53 54 55 55 56 57 57 56 56 56 55 54 54 54 53 53 53 52 52 51 51 50 50 49 48 48 49 49 49 49 49 50
30 31 34 36 39 42 45 48 49 49 50 51 52 53 54 55 56 56 56 56 56 56 55 54 54 53 53 52 52 52 52 52 51 51 50 49 49 49 50 50 49 49 50
28 29 31 33 36 39 42 45 46 48 49 50 52 52 53 54 55 55 56 56 56 56 55 55 55 54 54 54 54 53 53 53 53 52 51 51 51 51 51 50 50 50 50
27 29 30 31 32 35 38 41 43 45 47 48 50 51 52 53 54 55 55 56 56 56 56 56 56 55 55 55 54 54 54 53 53 52 52 53 52 52 52 52 51 51 51
27 28 29 30 31 32 34 36 39 42 43 45 46 48 50 51 52 54 55 55 55 56 55 55 55 55 55 55 54 53 53 54 53 53 53 53 53 53 53 53 52 52 52
27 28 28 29 30 31 32 34 35 38 40 41 43 44 46 47 49 50 51 52 53 54 54 55 54 54 54 54 54 54 53 53 54 53 53 53 53 53 53 52 52 53 53
26 26 28 29 30 31 32 33 34 35 36 38 40 41 43 44 46 47 48 49 50 51 52 52 53 53 53 53 53 53 53 53 53 53 53 53 53 53 53 53 53 53 53
24 25 26 27 29 30 31 31 32 34 35 36 37 39 39 41 43 43 44 45 47 48 49 49 50 51 51 51 51 51 51 51 52 52 52 53 53 52 52 53 53 53 53
23 24 25 26 27 29 30 31 32 34 34 34 35 36 37 38 40 41 42 43 44 45 47 48 48 49 50 50 51 51 50 50 50 50 51 51 51 51 51 51 51 51 51
Wind_Direction
230 230 229 229 229 230 230 230 230 230 231 231 231 232 232 232 232 233 233 232 232 233 234 235 237 238 239 240 241 242 244 246 247 248 249 251 254 256 259 262 264 266 267
230 229 229 229 229 229 230 230 230 230 231 231 231 231 232 232 233 233 234 233 233 234 234 235 237 238 240 241 242 243 245 247 248 249 251 251 254 257 260 262 265 266 267
229 229 229 228 229 229 229 229 229 229 230 230 230 230 231 232 233 233 234 234 234 235 236 236 237 239 241 242 243 244 246 247 248 250 251 253 256 259 261 262 264 267 268
229 229 229 228 228 228 228 228 229 229 229 230 230 231 231 232 233 233 234 235 235 237 237 238 238 239 241 242 243 244 246 248 249 250 252 254 257 259 260 262 264 265 267
229 228 228 228 228 228 227 228 228 229 230 230 230 230 230 231 232 233 234 235 236 237 238 239 240 241 242 244 245 246 246 248 249 251 252 255 257 258 260 261 262 264 265
227 227 228 228 227 228 228 228 228 229 229 230 230 231 231 232 232 233 235 235 236 237 238 240 242 243 244 245 246 247 247 248 249 251 252 254 257 257 260 261 261 262 264
227 226 227 228 227 228 228 228 229 229 229 230 231 231 232 232 233 234 234 235 237 237 238 239 241 243 245 246 247 248 249 249 250 251 253 253 256 257 260 261 262 262 264
226 226 227 227 227 228 228 229 229 229 229 230 231 231 232 232 233 233 234 235 236 237 238 239 241 243 245 246 248 248 249 250 250 251 253 254 256 258 260 261 261 262 264
226 226 226 226 227 227 228 229 230 230 230 230 231 231 232 233 233 233 235 236 236 237 238 240 241 243 244 245 247 249 250 251 251 252 253 254 255 257 258 259 260 262 263
227 227 227 227 227 227 228 229 229 230 230 230 230 230 232 233 233 234 234 235 236 237 239 240 241 242 244 245 247 248 249 251 251 252 253 253 254 255 256 257 259 261 263
227 227 226 227 227 227 227 228 229 230 230 230 230 230 231 232 233 233 233 234 236 237 238 240 241 243 244 245 247 248 250 251 251 252 253 253 253 254 256 257 259 261 262
227 227 226 225 226 226 227 228 229 229 229 230 230 230 231 232 232 233 233 234 235 237 238 239 241 243 244 246 247 248 250 251 252 253 254 254 254 255 256 258 259 260 261
227 227 226 225 226 226 226 227 229 229 230 230 230 230 230 231 232 233 234 235 236 237 238 240 241 242 244 245 247 248 250 252 252 253 254 255 256 256 257 258 259 260 261
228 226 226 226 227 227 227 228 229 230 230 230 230 230 230 231 232 233 234 235 236 237 239 240 242 243 244 245 247 248 249 251 252 253 254 255 257 258 258 258 259 260 262
228 227 226 227 227 228 228 228 228 229 230 230 231 231 231 231 232 233 235 236 237 238 239 240 242 244 245 246 247 249 250 251 252 253 254 255 256 257 258 259 260 261 262
229 228 228 227 228 227 228 228 229 229 230 230 231 231 232 232 232 233 234 235 237 238 240 241 242 244 245 247 248 249 250 251 252 254 255 255 256 257 258 259 260 262 263
229 228 227 228 228 228 228 229 229 230 230 231 232 233 233 234 234 234 235 236 237 238 240 241 242 244 245 246 248 249 250 251 252 254 254 255 256 257 257 259 260 262 263
229 229 228 227 228 228 228 229 230 231 231 232 232 233 233 234 235 235 236 236 237 238 240 241 243 244 245 246 248 249 250 251 253 254 255 255 256 257 258 260 261 262 263
228 227 228 228 228 229 230 231 231 231 232 232 233 233 234 235 236 236 236 237 239 239 240 241 243 244 246 248 249 250 252 252 253 254 255 256 257 258 259 260 261 262 263
229 227 227 228 229 229 229 230 231 232 233 233 234 234 235 236 236 237 237 238 239 240 241 242 244 245 247 248 250 252 253 253 254 254 256 257 258 258 259 260 262 262 263
232 230 229 230 229 229 228 229 230 231 233 234 234 235 235 236 237 237 237 238 239 240 242 243 244 246 247 249 251 252 253 253 254 256 257 257 258 259 260 261 261 262 262
233 233 232 231 231 230 229 229 230 231 232 233 233 234 234 235 236 237 238 239 240 241 242 243 244 246 247 248 250 252 252 253 254 256 257 258 258 259 260 261 262 262 262
235 235 233 231 232 231 231 230 229 229 230 232 233 233 234 234 236 237 238 239 240 241 242 243 244 246 247 249 250 252 252 253 254 255 256 257 259 259 260 261 261 262 262
236 235 234 232 231 232 232 231 231 231 231 231 233 234 235 235 236 237 238 239 240 241 241 243 244 246 248 249 251 251 253 254 254 255 256 257 258 259 259 259 261 261 262
236 234 233 233 233 233 233 233 232 232 233 233 234 235 235 235 236 236 237 238 239 240 240 242 243 245 247 248 250 251 252 253 254 255 256 257 258 259 259 260 261 261 262
241 237 234 233 233 234 235 235 235 233 233 234 235 235 235 236 236 236 237 238 239 239 240 241 243 245 246 247 249 250 251 253 254 255 256 257 258 258 259 260 261 262 262
Height
5702 5708 5715 5721 5727 5732 5738 5744 5749 5754 5760 5765 5770 5775 5779 5783 5787 5791 5795 5799 5802 5805 5809 5812 5814 5817 5820 5822 5824 5826 5828 5830 5832 5833 5834 5835 5836 5837 5838 5838 5839 5839 5839
5689 5696 5702 5708 5714 5721 5727 5733 5739 5744 5750 5755 5760 5765 5770 5774 5779 5783 5787 5791 5794 5798 5802 5805 5808 5810 5813 5816 5818 5820 5822 5824 5826 5827 5829 5830 5831 5832 5832 5833 5833 5833 5833
5676 5683 5689 5696 5702 5709 5715 5722 5727 5734 5739 5745 5750 5755 5760 5765 5770 5774 5778 5783 5787 5790 5794 5797 5800 5803 5806 5809 5811 5814 5816 5818 5819 5821 5823 5824 5825 5826 5826 5827 5828 5828 5828
5663 5670 5676 5683 5690 5697 5704 5710 5716 5722 5728 5734 5740 5746 5751 5757 5761 5766 5770 5774 5778 5782 5785 5789 5792 5795 5798 5801 5804 5806 5809 5811 5813 5814 5816 5817 5818 5819 5820 5821 5821 5822 5822
5650 5657 5664 5671 5678 5685 5692 5698 5705 5711 5717 5724 5730 5735 5741 5746 5751 5756 5761 5766 5770 5774 5777 5781 5784 5787 5790 5793 5796 5798 5801 5804 5806 5807 5809 5810 5811 5813 5814 5814 5815 5815 5815
5637 5644 5651 5658 5665 5672 5679 5686 5693 5700 5706 5712 5719 5725 5730 5736 5741 5746 5751 5756 5761 5765 5769 5772 5776 5779 5782 5785 5788 5790 5793 5796 5798 5800 5801 5803 5804 5805 5806 5807 5808 5808 5809
5624 5631 5638 5645 5652 5660 5667 5674 5680 5687 5694 5701 5707 5713 5719 5725 5731 5736 5741 5746 5751 5756 5760 5764 5767 5770 5773 5776 5779 5782 5784 5787 5790 5792 5794 5795 5797 5798 5799 5800 5800 5801 5801
5611 5619 5626 5633 5640 5647 5654 5662 5668 5675 5682 5689 5695 5702 5708 5714 5720 5725 5731 5736 5741 5746 5750 5754 5758 5761 5765 5768 5771 5773 5776 5778 5781 5783 5785 5787 5789 5790 5791 5792 5793 5793 5794
5599 5606 5614 5621 5628 5635 5642 5649 5656 5663 5670 5677 5683 5690 5696 5702 5708 5714 5720 5725 5731 5735 5740 5744 5748 5752 5755 5759 5762 5765 5767 5769 5772 5774 5776 5778 5780 5781 5783 5784 5785 5786 5786
5587 5595 5602 5609 5616 5624 5631 5637 5644 5651 5658 5665 5671 5678 5684 5691 5697 5703 5708 5714 5720 5725 5729 5734 5738 5742 5746 5749 5752 5755 5758 5760 5763 5765 5767 5769 5771 5773 5774 5775 5776 5776 5777
5576 5583 5590 5598 5605 5612 5619 5625 5632 5639 5646 5653 5659 5666 5673 5679 5685 5691 5697 5703 5708 5713 5718 5723 5728 5732 5735 5739 5742 5745 5748 5750 5753 5755 5757 5759 5761 5763 5764 5765 5766 5767 5768
5566 5572 5579 5586 5593 5600 5607 5613 5620 5627 5634 5641 5647 5654 5661 5667 5674 5679 5686 5691 5697 5702 5707 5712 5717 5721 5725 5728 5732 5734 5737 5740 5743 5745 5747 5749 5751 5753 5754 5755 5756 5757 5758
5556 5562 5568 5575 5581 5588 5595 5602 5608 5615 5622 5629 5635 5642 5649 5656 5662 5668 5674 5680 5686 5691 5696 5701 5706 5710 5714 5717 5721 5724 5727 5730 5732 5735 5737 5739 5740 5742 5743 5745 5746 5747 5748
5546 5552 5558 5564 5571 5577 5584 5591 5597 5604 5610 5617 5623 5630 5637 5644 5650 5656 5662 5668 5674 5679 5684 5689 5694 5699 5703 5706 5710 5713 5716 5719 5721 5724 5726 5728 5730 5731 5732 5734 5735 5736 5737
5537 5542 5548 5554 5560 5567 5573 5580 5586 5593 5599 5605 5612 5618 5625 5632 5638 5644 5650 5656 5662 5668 5673 5678 5683 5687 5691 5695 5698 5701 5704 5707 5710 5712 5714 5716 5718 5720 5721 5723 5724 5725 5726
5528 5533 5538 5544 5550 5556 5563 5569 5576 5582 5588 5594 5601 5607 5613 5620 5626 5632 5638 5644 5650 5656 5661 5666 5671 5675 5679 5683 5686 5690 5693 5696 5698 5700 5702 5704 5706 5708 5710 5711 5712 5714 5715
5520 5525 5529 5534 5540 5546 5552 5559 5565 5571 5577 5583 5589 5595 5602 5608 5614 5620 5626 5632 5638 5643 5648 5653 5658 5663 5667 5671 5674 5677 5680 5683 5686 5688 5690 5692 5694 5696 5698 5699 5700 5702 5702
5513 5517 5521 5526 5531 5536 5542 5548 5554 5560 5566 5572 5578 5584 5590 5596 5602 5608 5614 5620 5625 5631 5636 5641 5646 5651 5655 5658 5662 5665 5668 5671 5673 5675 5678 5680 5682 5684 5685 5687 5688 5689 5690
5505 5509 5513 5517 5522 5526 5532 5538 5543 5549 5554 5560 5566 5572 5578 5584 5590 5596 5602 5607 5612 5618 5623 5628 5633 5638 5642 5646 5649 5652 5655 5658 5660 5663 5665 5668 5670 5672 5673 5674 5676 5677 5677
5498 5502 5505 5509 5513 5517 5522 5528 5533 5538 5543 5549 5554 5560 5566 5572 5577 5583 5589 5594 5600 5605 5610 5615 5620 5624 5629 5632 5636 5638 5642 5645 5648 5650 5652 5655 5657 5658 5659 5661 5662 5663 5664
5492 5495 5498 5502 5505 5509 5513 5518 5523 5528 5533 5538 5543 5548 5553 5559 5565 5571 5576 5581 5587 5592 5597 5602 5607 5611 5616 5619 5622 5625 5628 5631 5633 5636 5639 5641 5643 5644 5646 5647 5648 5649 5650
5486 5489 5491 5494 5498 5501 5505 5509 5514 5518 5523 5528 5532 5537 5541 5547 5552 5557 5563 5568 5573 5578 5583 5588 5593 5597 5602 5605 5609 5611 5614 5617 5620 5622 5625 5627 5629 5630 5632 5633 5634 5635 5636
5479 5481 5484 5487 5490 5494 5497 5501 5505 5509 5513 5518 5522 5526 5531 5535 5540 5545 5550 5555 5560 5565 5570 5575 5580 5584 5588 5592 5595 5598 5600 5603 5606 5608 5611 5613 5614 5616 5617 5619 5620 5621 5622
5472 5474 5477 5480 5483 5486 5490 5493 5497 5501 5505 5509 5513 5517 5521 5525 5529 5534 5538 5543 5547 5552 5557 5562 5567 5571 5575 5578 5581 5584 5587 5589 5592 5594 5596 5598 5600 5602 5603 5605 5606 5607 5608
5465 5468 5470 5473 5476 5479 5482 5485 5489 5492 5496 5500 5504 5507 5511 5515 5519 5523 5527 5531 5536 5540 5545 5549 5553 5558 5562 5565 5568 5570 5573 5575 5578 5580 5582 5584 5586 5588 5589 5591 5592 5593 5594
5459 5461 5464 5466 5469 5472 5475 5478 5481 5485 5488 5492 5495 5498 5502 5505 5509 5513 5517 5521 5525 5528 5532 5537 5540 5544 5548 5551 5554 5557 5559 5562 5564 5566 5568 5570 5572 5574 5575 5576 5578 5579 5580